Regional Weather Roundup
Issued by NWS

Home | Current Version | Previous Version | Text Only | Print | Product List | Glossary On
Versions: 1 2 3 4 5 6 7 8 9 10 11 12 13 14 15 16 17 18 19 20 21 22 23 24 25 26 27 28 29 30 31 32 33 34 35 36 37 38 39 40 41 42 43 44 45 46 47 48 49 50
000
ASUS43 KLMK 260602
RWRKY
KENTUCKY REGIONAL WEATHER ROUNDUP
NATIONAL WEATHER SERVICE LOUISVILLE KY
200 AM EDT SUN APR 26 2015

NOTE "FAIR" INDICATES FEW OR NO CLOUDS BELOW 12,000 FEET
WITH NO SIGNIFICANT WEATHER AND/OR OBSTRUCTIONS TO VISIBILITY.

KYZ001>023-026-027-061>063-070>075-260700-
WESTERN AND SOUTH CENTRAL KENTUCKY

CITY           SKY/WX    TMP DP  RH WIND       PRES   REMARKS
PADUCAH        CLOUDY    60  57  89 N10       29.65R
HENDERSON      CLOUDY    52  46  82 N9G17     29.68R
OWENSBORO      LGT RAIN  51  50  97 NE13      29.67R FOG
HOPKINSVILLE   CLOUDY    60  59  96 W6        29.62R
BOWLING GREEN  CLOUDY    61  58  90 NW5       29.62R
GLASGOW        NOT AVBL
$$

KYZ024-025-028>034-038-045-046-053-260700-
NORTH CENTRAL KENTUCKY

CITY           SKY/WX    TMP DP  RH WIND       PRES   REMARKS
LOUISVILLE/SDF DRIZZLE   47  44  90 NE10      29.69R
LOUISVILLE/LOU LGT RAIN  47  44  90 NE7       29.69R
FORT KNOX      CLOUDY    47  45  93 N13       29.64S
$$

KYZ035>037-039>044-047>052-055>060-089>105-260700-
NORTHEAST KENTUCKY

CITY           SKY/WX    TMP DP  RH WIND       PRES   REMARKS
LEXINGTON      LGT RAIN  45  43  93 NE13      29.65R
COVINGTON      CLOUDY    45  41  86 NE16      29.70R
FRANKFORT      CLOUDY    45  42  89 NE7       29.66R
$$

KYZ054-064>069-076>088-106>120-260700-
SOUTHEAST KENTUCKY

CITY           SKY/WX    TMP DP  RH WIND       PRES   REMARKS
JACKSON        CLOUDY    48  47  96 VRB3      29.59R FOG
LONDON         CLOUDY    55  51  86 N5        29.58R
SOMERSET       NOT AVBL
MIDDLESBORO    CLOUDY    58  58  99 CALM      29.57S
MONTICELLO     PTCLDY    58  58 100 W6        29.62R
$$



USA.gov is the U.S. government's official web portal to all federal, state and local government web resources and services.